EW9200 Weather Reports


Display with metric or nautical units.
time (UTC)temp
F
wind
direction
speed
MPH
gust
MPH
rain 1hr
in
rain 24hr
in
rain mn
in
humidity
%
barometer
mb
20260903133534 83 225 2.0 5.0 0.00 0.00 0.00 82 1013.8
20260903133057 83 143 1.0 5.0 0.00 0.00 0.00 83 1013.9
20260903132529 82 188 1.0 3.0 0.00 0.00 0.00 83 1013.9
20260903132029 81 165 1.0 3.0 0.00 0.00 0.00 84 1013.9
20260903131556 81 181 1.0 3.0 0.00 0.00 0.00 84 1013.9
20260903131029 81 200 0.0 3.0 0.00 0.00 0.00 85 1013.9
20260903130531 80 209 1.0 3.0 0.00 0.00 0.00 85 1014.0
20260903130051 80 149 1.0 2.0 0.00 0.00 0.00 86 1014.0
20260903125530 80 0 0.0 2.0 0.00 0.00 0.00 87 1014.1
20260903125028 79 198 0.0 2.0 0.00 0.00 0.00 87 1014.0
20260903124547 79 154 0.0 2.0 0.00 0.00 0.00 88 1014.1
20260903124027 79 0 0.0 2.0 0.00 0.00 0.00 88 1014.1
20260903123532 78 217 0.0 1.0 0.00 0.00 0.00 88 1014.1
20260903123054 78 159 0.0 1.0 0.00 0.00 0.00 89 1014.1
20260903122530 77 0 0.0 0.0 0.00 0.00 0.00 91 1014.1
20260903122030 76 0 0.0 0.0 0.00 0.00 0.00 92 1014.2
20260903121551 75 0 0.0 0.0 0.00 0.00 0.00 94 1014.1
20260903121030 74 0 0.0 0.0 0.00 0.00 0.00 96 1014.0
20260903120527 74 0 0.0 0.0 0.00 0.00 0.00 96 1014.1
20260903120053 73 0 0.0 0.0 0.00 0.00 0.00 97 1014.1
20260903115529 73 0 0.0 0.0 0.00 0.00 0.00 96 1014.1
20260903115033 73 0 0.0 0.0 0.00 0.00 0.00 96 1014.0
20260903114543 73 0 0.0 0.0 0.00 0.00 0.00 96 1014.0
20260903114029 73 0 0.0 0.0 0.00 0.00 0.00 96 1013.9
20260903113529 73 0 0.0 0.0 0.00 0.00 0.00 96 1013.9
20260903113054 73 0 0.0 0.0 0.00 0.00 0.00 95 1013.9
20260903112530 73 0 0.0 0.0 0.00 0.00 0.00 95 1013.9
20260903112030 74 0 0.0 0.0 0.00 0.00 0.00 94 1013.7
20260903111555 74 0 0.0 0.0 0.00 0.00 0.00 94 1013.9
20260903111029 74 0 0.0 0.0 0.00 0.00 0.00 94 1013.7
20260903110526 74 0 0.0 0.0 0.00 0.00 0.00 94 1013.7
20260903110049 74 0 0.0 0.0 0.00 0.00 0.00 94 1013.9
20260903105530 74 0 0.0 0.0 0.00 0.00 0.00 94 1013.8
20260903105030 74 0 0.0 0.0 0.00 0.00 0.00 93 1013.7
20260903104553 74 0 0.0 1.0 0.00 0.00 0.00 93 1013.7
20260903104029 75 0 0.0 1.0 0.00 0.00 0.00 94 1013.8
20260903103529 74 0 0.0 1.0 0.00 0.00 0.00 94 1013.7
20260903103044 74 0 0.0 1.0 0.00 0.00 0.00 95 1013.7
20260903102529 74 0 0.0 1.0 0.00 0.00 0.00 95 1013.8
20260903102029 74 0 0.0 1.0 0.00 0.00 0.00 96 1013.7
20260903101553 73 0 0.0 0.0 0.00 0.00 0.00 97 1013.7
20260903101029 73 0 0.0 0.0 0.00 0.00 0.00 96 1013.7
20260903100529 74 0 0.0 0.0 0.00 0.00 0.00 96 1013.7
20260903100052 74 0 0.0 0.0 0.00 0.00 0.00 96 1013.7
20260903095528 74 0 0.0 1.0 0.00 0.00 0.00 97 1013.7
20260903095027 74 0 0.0 1.0 0.00 0.00 0.00 97 1013.7
20260903094557 74 0 0.0 1.0 0.00 0.00 0.00 98 1013.6
20260903094030 73 0 0.0 1.0 0.00 0.00 0.00 100 1013.8
20260903093529 73 0 0.0 1.0 0.00 0.00 0.00 100 1013.7
20260903093057 73 0 0.0 0.0 0.00 0.00 0.00 100 1013.7
20260903092531 73 0 0.0 0.0 0.00 0.00 0.00 100 1013.7
20260903092027 73 0 0.0 0.0 0.00 0.00 0.00 100 1013.7
20260903091547 73 0 0.0 0.0 0.00 0.00 0.00 100 1013.7
20260903091029 73 0 0.0 0.0 0.00 0.00 0.00 100 1013.7
20260903090529 73 0 0.0 0.0 0.00 0.00 0.00 100 1013.6
20260903090044 73 0 0.0 0.0 0.00 0.00 0.00 100 1013.5
20260903085529 73 0 0.0 0.0 0.00 0.00 0.00 100 1013.5
20260903085028 73 0 0.0 0.0 0.00 0.00 0.00 100 1013.5
20260903084544 73 0 0.0 0.0 0.00 0.00 0.00 100 1013.6
20260903084029 73 0 0.0 0.0 0.00 0.00 0.00 100 1013.6
20260903083529 73 0 0.0 0.0 0.00 0.00 0.00 100 1013.5
20260903083044 73 0 0.0 0.0 0.00 0.00 0.00 100 1013.5
20260903082532 73 0 0.0 0.0 0.00 0.00 0.00 100 1013.5
20260903082031 73 0 0.0 0.0 0.00 0.00 0.00 100 1013.5
20260903081550 73 0 0.0 0.0 0.00 0.00 0.00 100 1013.4
20260903081028 73 0 0.0 0.0 0.00 0.00 0.00 100 1013.6
20260903080529 74 0 0.0 0.0 0.00 0.00 0.00 100 1013.6
20260903080047 74 0 0.0 0.0 0.00 0.00 0.00 100 1013.6
20260903075533 74 0 0.0 0.0 0.00 0.00 0.00 100 1013.4
20260903075028 74 0 0.0 0.0 0.00 0.00 0.00 100 1013.5
20260903074543 74 0 0.0 0.0 0.00 0.00 0.00 100 1013.5
20260903074029 74 0 0.0 0.0 0.00 0.00 0.00 100 1013.4
20260903073529 74 0 0.0 0.0 0.00 0.00 0.00 99 1013.5
20260903073056 74 0 0.0 0.0 0.00 0.00 0.00 99 1013.5
20260903072529 74 0 0.0 0.0 0.00 0.00 0.00 99 1013.6
20260903072027 74 0 0.0 0.0 0.00 0.00 0.00 99 1013.5
20260903071549 74 0 0.0 0.0 0.00 0.00 0.00 99 1013.5
20260903071030 74 0 0.0 0.0 0.00 0.00 0.00 99 1013.5
20260903070529 74 0 0.0 0.0 0.00 0.00 0.00 99 1013.5
20260903070048 74 0 0.0 0.0 0.00 0.00 0.00 99 1013.5
20260903065529 74 0 0.0 0.0 0.00 0.00 0.00 99 1013.4
20260903065029 74 0 0.0 0.0 0.00 0.00 0.00 99 1013.5
20260903064546 74 0 0.0 0.0 0.00 0.00 0.00 99 1013.6
20260903064029 74 0 0.0 0.0 0.00 0.00 0.00 98 1013.5
20260903063528 74 0 0.0 0.0 0.00 0.00 0.00 98 1013.6
20260903063044 74 0 0.0 0.0 0.00 0.00 0.00 98 1013.5
20260903062527 75 0 0.0 0.0 0.00 0.00 0.00 98 1013.6
20260903062027 75 0 0.0 0.0 0.00 0.00 0.00 98 1013.6
20260903061550 75 0 0.0 0.0 0.00 0.00 0.00 98 1013.5
20260903061028 75 0 0.0 0.0 0.00 0.00 0.00 98 1013.5
20260903060527 75 0 0.0 0.0 0.00 0.00 0.00 97 1013.5
20260903060047 75 0 0.0 0.0 0.00 0.00 0.00 97 1013.5
20260903055529 75 0 0.0 0.0 0.00 0.00 0.00 97 1013.6
20260903055027 75 0 0.0 0.0 0.00 0.00 0.00 97 1013.6
20260903054555 75 0 0.0 0.0 0.00 0.00 0.00 97 1013.7
20260903054029 75 0 0.0 0.0 0.00 0.00 0.00 97 1013.6
20260903053530 75 0 0.0 0.0 0.00 0.00 0.00 96 1013.6
20260903053045 76 0 0.0 0.0 0.00 0.00 0.00 96 1013.6
20260903052530 76 0 0.0 0.0 0.00 0.00 0.00 96 1013.6
20260903052031 76 0 0.0 0.0 0.00 0.00 0.00 96 1013.5
20260903051550 76 0 0.0 0.0 0.00 0.00 0.00 96 1013.5
20260903051029 76 0 0.0 0.0 0.00 0.00 0.00 95 1013.4
20260903050529 76 0 0.0 0.0 0.00 0.00 0.00 95 1013.3
20260903050055 76 0 0.0 0.0 0.00 0.00 0.00 95 1013.4
20260903045527 77 0 0.0 0.0 0.00 0.00 0.00 94 1013.4
20260903045031 77 0 0.0 0.0 0.00 0.00 0.00 94 1013.5
20260903044550 77 0 0.0 0.0 0.00 0.00 0.00 93 1013.4
20260903044027 77 0 0.0 0.0 0.00 0.00 0.00 93 1013.3
20260903043530 78 0 0.0 0.0 0.00 0.00 0.00 92 1013.4
20260903043049 78 0 0.0 0.0 0.00 0.00 0.00 92 1013.4
20260903042529 78 0 0.0 0.0 0.00 0.00 0.00 92 1013.3
20260903042029 78 0 0.0 0.0 0.00 0.00 0.00 91 1013.3
20260903041555 79 0 0.0 0.0 0.00 0.00 0.00 91 1013.3
20260903041028 78 0 0.0 0.0 0.00 0.00 0.00 92 1013.4
20260903040528 79 0 0.0 0.0 0.00 0.00 0.00 92 1013.3
20260903040058 79 0 0.0 0.0 0.00 0.00 0.00 91 1013.3
20260903035528 79 0 0.0 0.0 0.00 0.00 0.00 91 1013.3
20260903035029 79 0 0.0 0.0 0.00 0.00 0.00 90 1013.2
20260903034548 80 0 0.0 0.0 0.00 0.00 0.00 90 1013.3
20260903034029 80 0 0.0 0.0 0.00 0.00 0.00 89 1013.1
20260903033528 80 0 0.0 0.0 0.00 0.00 0.00 88 1013.1
20260903033046 81 0 0.0 1.0 0.00 0.00 0.00 88 1013.1
20260903032527 81 0 0.0 1.0 0.00 0.00 0.00 87 1013.0
20260903032029 81 0 0.0 2.0 0.00 0.00 0.00 87 1012.9
20260903031544 82 240 0.0 2.0 0.00 0.00 0.00 86 1013.1
20260903031028 82 0 0.0 2.0 0.00 0.00 0.00 86 1013.1
20260903030528 82 0 0.0 2.0 0.00 0.00 0.00 86 1013.2
20260903030054 82 0 0.0 3.0 0.00 0.00 0.00 86 1013.3
20260903025530 82 0 0.0 3.0 0.00 0.00 0.00 86 1013.3
20260903025028 82 191 0.0 3.0 0.00 0.00 0.00 86 1013.2
20260903024551 82 141 0.0 2.0 0.00 0.00 0.00 85 1013.2
20260903024029 82 155 0.0 2.0 0.00 0.00 0.00 85 1013.2
20260903023529 82 242 0.0 3.0 0.00 0.00 0.00 85 1013.3
20260903023101 82 0 1.0 3.0 0.00 0.00 0.00 85 1013.3
20260903022529 82 254 0.0 2.0 0.00 0.00 0.00 85 1013.4
20260903022027 82 0 0.0 2.0 0.00 0.00 0.00 85 1013.3
20260903021546 82 155 0.0 2.0 0.00 0.00 0.00 85 1013.5
20260903021032 82 0 0.0 1.0 0.00 0.00 0.00 85 1013.3
20260903020528 83 0 0.0 1.0 0.00 0.00 0.00 85 1013.3
20260903020042 83 0 0.0 2.0 0.00 0.00 0.00 85 1013.2
20260903015528 83 0 0.0 2.0 0.00 0.00 0.00 85 1013.2
20260903015029 83 212 0.0 2.0 0.00 0.00 0.00 85 1013.0
20260903014551 83 240 0.0 1.0 0.00 0.00 0.00 85 1013.0
20260903014027 83 0 0.0 1.0 0.00 0.00 0.00 84 1013.0
20260903013526 83 0 0.0 1.0 0.00 0.00 0.00 84 1013.0
20260903013052 84 0 0.0 0.0 0.00 0.00 0.00 83 1012.9
20260903012526 84 0 0.0 0.0 0.00 0.00 0.00 83 1012.9
20260903012029 84 0 0.0 1.0 0.00 0.00 0.00 82 1012.8
20260903011546 85 0 0.0 3.0 0.00 0.00 0.00 81 1012.8
20260903011029 85 0 0.0 3.0 0.00 0.00 0.00 81 1012.8
20260903010532 85 210 0.0 2.0 0.00 0.00 0.00 81 1012.9
20260903010042 85 217 0.0 3.0 0.00 0.00 0.00 80 1012.8
20260903005527 86 212 1.0 3.0 0.00 0.00 0.00 80 1012.7
20260903005031 86 248 0.0 2.0 0.00 0.00 0.00 80 1012.7
20260903004552 86 0 0.0 1.0 0.00 0.00 0.00 80 1012.5
20260903004029 86 0 0.0 2.0 0.00 0.00 0.00 79 1012.7
20260903003527 86 0 0.0 2.0 0.00 0.00 0.00 79 1012.7
20260903003052 86 225 0.0 2.0 0.00 0.00 0.00 79 1012.6
20260903002532 87 0 0.0 2.0 0.00 0.00 0.00 78 1012.6
20260903002027 87 229 0.0 2.0 0.00 0.00 0.00 78 1012.7
20260903001545 87 0 0.0 2.0 0.00 0.00 0.00 77 1012.7
20260903001028 88 0 0.0 2.0 0.00 0.00 0.00 76 1012.8
20260903000534 88 228 0.0 3.0 0.00 0.00 0.00 76 1012.7
20260903000055 88 236 0.0 3.0 0.00 0.00 0.00 76 1012.7
20260902235530 88 0 0.0 4.0 0.00 0.00 0.00 75 1012.7
20260902235030 89 147 1.0 4.0 0.00 0.00 0.00 75 1012.7
20260902234551 89 201 1.0 5.0 0.00 0.00 0.00 75 1012.7
20260902234030 89 187 1.0 5.0 0.00 0.00 0.00 74 1012.7
20260902233531 89 169 1.0 4.0 0.00 0.00 0.00 74 1012.6
20260902233048 90 0 1.0 4.0 0.00 0.00 0.00 74 1012.8
20260902232531 90 193 0.0 4.0 0.00 0.00 0.00 73 1012.6
20260902232032 90 193 2.0 5.0 0.00 0.00 0.00 72 1012.7
20260902231601 90 131 2.0 5.0 0.00 0.00 0.00 72 1012.7
20260902231030 91 125 2.0 7.0 0.00 0.00 0.00 71 1012.7
20260902230530 91 245 2.0 7.0 0.00 0.00 0.00 70 1012.8
20260902230104 91 233 2.0 10.0 0.00 0.00 0.00 70 1012.9
20260902225533 92 231 3.0 10.0 0.00 0.00 0.00 69 1012.9
20260902225034 92 240 2.0 6.0 0.00 0.00 0.00 69 1012.9
20260902224549 92 209 2.0 6.0 0.00 0.00 0.00 69 1012.9
20260902224031 92 215 2.0 6.0 0.00 0.00 0.00 69 1012.9
20260902223531 92 0 2.0 5.0 0.00 0.00 0.00 70 1013.0
20260902223053 92 227 2.0 7.0 0.00 0.00 0.00 69 1012.9
20260902222531 93 230 2.0 7.0 0.00 0.00 0.00 69 1013.0
20260902222033 92 155 2.0 7.0 0.00 0.00 0.00 69 1012.9
20260902221558 92 182 1.0 7.0 0.00 0.00 0.00 68 1012.9
20260902221030 92 141 2.0 8.0 0.00 0.00 0.00 68 1013.0
20260902220531 92 226 3.0 9.0 0.00 0.00 0.00 67 1012.9
20260902220048 93 223 3.0 9.0 0.00 0.00 0.00 66 1013.0
20260902215531 94 207 3.0 7.0 0.00 0.00 0.00 65 1012.9
20260902215030 94 207 2.0 7.0 0.00 0.00 0.00 66 1012.9
20260902214554 94 268 3.0 7.0 0.00 0.00 0.00 67 1012.9
20260902214031 94 207 3.0 8.0 0.00 0.00 0.00 65 1012.9
20260902213530 94 235 3.0 8.0 0.00 0.00 0.00 66 1013.0
20260902213055 94 268 4.0 8.0 0.00 0.00 0.00 65 1013.0
20260902212528 95 153 3.0 8.0 0.00 0.00 0.00 66 1013.1
20260902212030 94 240 4.0 8.0 0.00 0.00 0.00 65 1013.1
20260902211549 95 236 2.0 6.0 0.00 0.00 0.00 66 1013.3
20260902211030 94 228 2.0 8.0 0.00 0.00 0.00 65 1013.2
20260902210528 95 198 3.0 8.0 0.00 0.00 0.00 62 1013.2
20260902210043 95 124 4.0 8.0 0.00 0.00 0.00 63 1013.2
20260902205528 95 164 2.0 7.0 0.00 0.00 0.00 65 1013.2
20260902205026 95 227 2.0 7.0 0.00 0.00 0.00 63 1013.1
20260902204543 95 354 3.0 8.0 0.00 0.00 0.00 62 1013.2
20260902204028 95 157 3.0 8.0 0.00 0.00 0.00 63 1013.2
20260902203528 95 204 2.0 8.0 0.00 0.00 0.00 63 1013.2
20260902203054 95 206 3.0 7.0 0.00 0.00 0.00 62 1013.3
20260902202528 95 229 2.0 7.0 0.00 0.00 0.00 63 1013.4
20260902202027 95 151 3.0 7.0 0.00 0.00 0.00 61 1013.3
20260902201551 96 131 3.0 7.0 0.00 0.00 0.00 63 1013.4
20260902201026 95 226 2.0 9.0 0.00 0.00 0.00 62 1013.4
20260902200528 95 351 2.0 9.0 0.00 0.00 0.00 62 1013.4
20260902200048 95 210 3.0 8.0 0.00 0.00 0.00 63 1013.4
20260902195527 95 222 4.0 9.0 0.00 0.00 0.00 63 1013.4
20260902195028 95 203 2.0 9.0 0.00 0.00 0.00 65 1013.5
20260902194548 94 153 2.0 7.0 0.00 0.00 0.00 65 1013.4
20260902194029 95 227 2.0 7.0 0.00 0.00 0.00 61 1013.5
20260902193528 96 161 3.0 7.0 0.00 0.00 0.00 62 1013.5
20260902193054 95 242 2.0 7.0 0.00 0.00 0.00 62 1013.6
20260902192529 95 250 3.0 7.0 0.00 0.00 0.00 63 1013.6
20260902192031 95 219 2.0 8.0 0.00 0.00 0.00 65 1013.6
20260902191557 95 179 2.0 9.0 0.00 0.00 0.00 65 1013.8
20260902191029 95 223 4.0 9.0 0.00 0.00 0.00 64 1013.6
20260902190529 95 141 2.0 7.0 0.00 0.00 0.00 65 1013.8
20260902190046 95 214 3.0 7.0 0.00 0.00 0.00 66 1013.9
20260902185526 95 155 2.0 6.0 0.00 0.00 0.00 65 1013.9
20260902185030 94 200 2.0 9.0 0.00 0.00 0.00 66 1014.0
20260902184544 94 214 3.0 9.0 0.00 0.00 0.00 65 1014.0
20260902184029 94 166 2.0 5.0 0.00 0.00 0.00 67 1014.0
20260902183526 94 195 2.0 8.0 0.00 0.00 0.00 66 1014.0
20260902183101 94 229 3.0 8.0 0.00 0.00 0.00 68 1014.0
20260902182527 94 143 2.0 6.0 0.00 0.00 0.00 66 1014.1
20260902182029 94 203 2.0 8.0 0.00 0.00 0.00 67 1014.1
20260902181553 93 214 2.0 9.0 0.00 0.00 0.00 67 1014.1
20260902181030 93 192 3.0 9.0 0.00 0.00 0.00 67 1014.1
20260902180527 93 268 3.0 10.0 0.00 0.00 0.00 69 1014.1
20260902180050 93 203 4.0 10.0 0.00 0.00 0.00 69 1014.3
20260902175531 93 239 2.0 7.0 0.00 0.00 0.00 69 1014.2
20260902175034 93 210 2.0 7.0 0.00 0.00 0.00 68 1014.3
20260902174600 93 152 3.0 6.0 0.00 0.00 0.00 70 1014.2
20260902174034 93 191 3.0 7.0 0.00 0.00 0.00 68 1014.2
20260902173530 93 216 2.0 7.0 0.00 0.00 0.00 67 1014.3
20260902173045 92 223 1.0 7.0 0.00 0.00 0.00 67 1014.2
20260902172533 92 211 3.0 7.0 0.00 0.00 0.00 68 1014.1
20260902172028 92 229 3.0 7.0 0.00 0.00 0.00 68 1014.3
20260902171601 92 227 2.0 5.0 0.00 0.00 0.00 70 1014.2
20260902171031 92 189 2.0 5.0 0.00 0.00 0.00 69 1014.3
20260902170530 91 143 2.0 5.0 0.00 0.00 0.00 68 1014.3
20260902170054 91 244 1.0 5.0 0.00 0.00 0.00 69 1014.5
20260902165533 91 236 2.0 5.0 0.00 0.00 0.00 68 1014.5
20260902165031 90 226 2.0 6.0 0.00 0.00 0.00 69 1014.5
20260902164550 90 66 1.0 6.0 0.00 0.00 0.00 68 1014.6
20260902164033 90 233 3.0 6.0 0.00 0.00 0.00 70 1014.6
20260902163528 90 226 1.0 5.0 0.00 0.00 0.00 71 1014.7
20260902163047 90 213 2.0 5.0 0.00 0.00 0.00 73 1014.8
20260902162527 90 65 2.0 5.0 0.00 0.00 0.00 71 1014.7
20260902162030 90 202 2.0 5.0 0.00 0.00 0.00 73 1014.8
20260902161558 90 344 1.0 5.0 0.00 0.00 0.00 72 1015.0
20260902161029 89 274 1.0 5.0 0.00 0.00 0.00 73 1015.0
20260902160535 89 162 1.0 7.0 0.00 0.00 0.00 73 1014.8
20260902160055 89 185 1.0 7.0 0.00 0.00 0.00 74 1015.0
20260902155530 88 162 2.0 7.0 0.00 0.00 0.00 72 1015.0
20260902155028 88 358 2.0 5.0 0.00 0.00 0.00 74 1015.1
20260902154604 88 199 1.0 5.0 0.00 0.00 0.00 76 1014.8
20260902154031 88 227 1.0 5.0 0.00 0.00 0.00 76 1014.8
20260902153530 87 210 1.0 6.0 0.00 0.00 0.00 76 1014.9
20260902153043 87 236 2.0 6.0 0.00 0.00 0.00 76 1014.9
20260902152530 87 198 2.0 5.0 0.00 0.00 0.00 76 1014.9
20260902152030 87 326 1.0 5.0 0.00 0.00 0.00 76 1015.0
20260902151548 86 127 2.0 6.0 0.00 0.00 0.00 75 1014.6
20260902151030 87 150 2.0 6.0 0.00 0.00 0.00 75 1014.6
20260902150531 86 167 1.0 5.0 0.00 0.00 0.00 76 1014.5
20260902150042 86 57 2.0 8.0 0.00 0.00 0.00 78 1014.5
20260902145531 85 175 1.0 8.0 0.00 0.00 0.00 77 1014.5
20260902145041 85 201 1.0 5.0 0.00 0.00 0.00 78 1014.4
20260902144553 84 186 2.0 6.0 0.00 0.00 0.00 78 1014.5
20260902144030 84 240 2.0 6.0 0.00 0.00 0.00 77 1014.5
20260902143530 84 245 2.0 6.0 0.00 0.00 0.00 78 1014.5
20260902143055 84 158 2.0 5.0 0.00 0.00 0.00 80 1014.7
20260902142530 83 185 2.0 4.0 0.00 0.00 0.00 81 1014.6
20260902142030 83 208 1.0 6.0 0.00 0.00 0.00 79 1014.8
20260902141545 83 0 1.0 6.0 0.00 0.00 0.00 79 1014.7
20260902141030 83 194 1.0 5.0 0.00 0.00 0.00 80 1014.7
20260902140530 83 212 1.0 5.0 0.00 0.00 0.00 78 1014.7
20260902140050 83 233 2.0 5.0 0.00 0.00 0.00 78 1014.8
20260902135528 84 172 0.0 5.0 0.00 0.00 0.00 78 1014.7
20260902135029 84 127 1.0 5.0 0.00 0.00 0.00 79 1014.8
20260902134541 83 224 2.0 5.0 0.00 0.00 0.00 81 1014.8
20260902134029 82 222 2.0 5.0 0.00 0.00 0.00 81 1014.7